Regional Weather Roundup
Issued by NWS

Home | Current Version | Previous Version | Graphics & Text | Print | Product List | Glossary On
Versions: 1 2 3 4 5 6 7 8 9 10 11 12 13 14 15 16 17 18 19 20 21 22 23 24 25 26 27 28 29 30 31 32 33 34 35 36 37 38 39 40 41 42 43 44 45 46 47 48 49
776
ASUS45 KBOU 222207
RWRCO

WEATHER ROUNDUP FOR COLORADO
NATIONAL WEATHER SERVICE DENVER/BOULDER CO
400 PM MDT SAT APR 22 2017

NOTE: "FAIR" INDICATES FEW OR NO CLOUDS BELOW 12000 FEET WITH NO
SIGNIFICANT WEATHER AND/OR OBSTRUCTIONS TO VISIBILITY.

COZ001>005-013-030-031-222300-
...NORTHWEST COLORADO...

CITY           SKY/WX    TMP DP  RH WIND       PRES   REMARKS
CRAIG          FAIR      57  20  23 CALM      30.17F
HAYDEN         FAIR      54  21  28 SE13      30.18F
MEEKER         FAIR      56  21  25 W3        30.17F
MOUNT WERNER   NOT AVBL
STEAMBOAT SPGS FAIR      53  22  29 SE14      30.19F
WALDEN           N/A     46  19  34 CALM      30.24F
$$

COZ006>008-011-222300-
...WEST CENTRAL VALLEYS...

CITY           SKY/WX    TMP DP  RH WIND       PRES   REMARKS
GRAND JUNCTION FAIR      65  14  14 MISG      30.11F
MONTROSE       FAIR      60  14  16 VRB6      30.16F
EAGLE          MOSUNNY   54  18  24 SW7       30.20F
RIFLE          FAIR      62  16  16 NE9       30.14F
DELTA          FAIR      65  16  14 NW6       30.15F
NUCLA          FAIR      63  14  15 CALM      30.17S
$$

COZ017>023-064>068-222300-
...SOUTHWEST COLORADO...

CITY           SKY/WX    TMP DP  RH WIND       PRES   REMARKS
DURANGO        FAIR      60  13  15 CALM      30.14F
CORTEZ         FAIR      64  15  15 MISG      30.13F
PAGOSA SPRINGS FAIR      58   8  13 S12       30.17F
TELLURIDE      FAIR      54  13  20 W10       30.23F
WOLF CREEK PAS FAIR      36  14  41 SW12G17   30.37S
$$

COZ009-010-012-014-032>034-037-058>063-222300-
...CENTRAL COLORADO...

CITY           SKY/WX    TMP DP  RH WIND       PRES   REMARKS
ASPEN          FAIR      52  17  25 W7G17     30.18F
BUENA VISTA    FAIR      51  10  19 W5        30.23S
COPPER MTN     FAIR      34   7  32 SE7       30.33S WCI  28
BERTHOUD PASS  FAIR      23  10  58 MISG      30.34S
COTTONWOOD PAS FAIR      46  12  25 E5        30.28S
GUNNISON       FAIR      53  11  18 CALM      30.18F
KREMMLING      FAIR      54  19  26 W7        30.22F
LEADVILLE      FAIR      41  12  30 SE5       30.25F
MONARCH PASS   FAIR      32  18  55 NE12      30.43R WCI  23
SALIDA         FAIR      54  22  29 SE13G23   30.29F
SUNLIGHT       FAIR      34  18  51 CALM      30.33F
WILKERSON PASS FAIR      28  27  93 CALM      30.36S
$$

COZ069>075-222300-
...SAN LUIS VALLEY/SANGRE DE CRISTO MOUNTAINS...

CITY           SKY/WX    TMP DP  RH WIND       PRES   REMARKS
ALAMOSA        FAIR      56  17  21 VRB3      30.18F
LA VETA PASS   FOG       30  28  93 NE10G21   30.42S VSB 1/4 WCI  21
SAGUACHE       FAIR      54  18  24 E10G21    30.20F
$$

COZ035-036-038>040-222300-
...NORTHERN COLORADO FRONT RANGE...

CITY           SKY/WX    TMP DP  RH WIND       PRES   REMARKS
DENVER INTL AP FAIR      54  27  35 SE9       30.23F
DMNS CITY PARK   N/A     55  26  32 NE3G16    30.23F
AURORA         MOSUNNY   54  27  35 NE3       30.24F
FRONT RANGE AP PTSUNNY   55  27  33 CALM      30.25F
ERIE MUNI ARPT FAIR      56  26  31 SE6       30.23F
BOULDER MUN AP FAIR      55  32  41 SE5       30.22F
CENTENNIAL     FAIR      52  28  39 E5        30.24F
BROOMFIELD     MOSUNNY   55  27  33 CALM      30.24F
FORT COLLINS   FAIR      56  33  42 S7        30.24F
LONGMONT       FAIR      59  31  34 CALM      30.25F
$$

COZ041-046-047-076>085-087-088-222300-
...PIKES PEAK/PALMER DIVIDE AND SOUTHERN FOOTHILLS...

CITY           SKY/WX    TMP DP  RH WIND       PRES   REMARKS
COLO. SPRINGS  PTSUNNY   49  34  56 VRB7      30.28F
A. F. ACADEMY  PTSUNNY   48  33  55 CALM      30.26F
SCHRIEVER AFB  FAIR      45  35  67 S8        30.28F
ELLICOTT       FAIR     N/A N/A N/A W7        30.27F
FALCON         PTSUNNY   46  32  59 CALM      30.29F
FORT CARSON    FAIR      50  32  49 SE6       30.27F
LIMON          FAIR      52  28  39 SW6       30.26F
MONUMENT HILL  FAIR      43  28  56 N5        30.28F
TRINIDAD       PTSUNNY   52  29  41 VRB5      30.28F
$$

COZ042>045-048>051-090-091-222300-
...NORTHEAST COLORADO...

CITY           SKY/WX    TMP DP  RH WIND       PRES   REMARKS
GREELEY ARPT   FAIR      59  35  40 S5        30.24F
AKRON          FAIR      52  29  41 S3        30.25F
BURLINGTON     NOT AVBL
WRAY           NOT AVBL
STERLING       FAIR      55  36  47 SW6       30.23F
HOLYOKE        FAIR      61  32  33 CALM      30.24F
FORT MORGAN    FAIR      57  31  37 S5        30.25F
$$

COZ086-089-092>099-222300-
...SOUTHEAST COLORADO...

CITY           SKY/WX    TMP DP  RH WIND       PRES   REMARKS
PUEBLO         FAIR      54  34  46 SW5       30.26F
LA JUNTA       FAIR      57  35  43 N7        30.26F
LAMAR          FAIR      57  33  40 VRB3      30.25F
SPRINGFIELD      N/A     53  28  38 N10G17    30.25F
$$




USA.gov is the U.S. government's official web portal to all federal, state and local government web resources and services.